Airfield :
LOGIN :

Register | Disclaimer

   EN    FR    IT 

 










Legend :    VFR   Marginal VFR   IFR   Intensive IFR   Very Intensive IFR
Visi :
Ceiling :
>= 8 km
>= 3000ft
5 to 8 km
1000 to 3000 ft
1500m to 5 km
500 to 1000 ft
800 to 1500m
200 to 500 ft
< 800m
< 200 ft
Symbols :   Thunderstorms  Fog  Heavy snow  Heavy precipitations  Wind > 20 kt
SIGMETs :     Misc.  Thunderstorms  Icing  Turbulence  Mountain Waves  Volcanic Ashes






- Airport Elevation : 782 ft
- IATA code : BGY


LIME - Orio al Serio International - Bergamo

CURRENT METAR :
  • 280620Z 01002KT 8000 NSC 02/02 Q1019 NOSIG

EXPIRED METARs :
  • 280550Z VRB02KT 8000 NSC 02/02 Q1019 NOSIG
  • 280520Z 01004KT 7000 NSC 03/02 Q1019 NOSIG
  • 280450Z 01004KT 7000 NSC 02/02 Q1019 NOSIG
  • 280420Z 01005KT 7000 NSC 03/02 Q1019 NOSIG

TAF TAF LIME
Valid from the 28 at 06:00 until the 29 at 06:00 UTC


280500Z 2806/2906 VRB05KT 6000 SCT060
TEMPO 2806/2808 2500 BR



MET'MAP, your aeronautical weather chart ! - Copyright ORBIFLY December 2007 - Disclaimer

ORBIFLY MET'MAP TEAM :

Programming & Development : Alexandra Zaïnal
Concept & original design : Baudouin d'Aumeries
Assistance for programming : Marc-Olivier Méhu
Technical & hardware support : Manuel Goepfert

Contact : metmap@orbifly.com




SOURCES & CREDITS :

   NOAA